Home > Weather > Stafford > Past weeks

Flag for United Kingdom Past Weather in Stafford, England, United Kingdom — Yesterday and Last 2 Weeks

Now
57 °F

Partly sunny.


Feels Like: 57 °F
Forecast: 56 / 68 °F
Wind: 2 mph from East

Location: Shawbury

Current Time: Aug 27, 2016 at 11:08:36 AM

Latest Report: Aug 27, 2016 at 9:50 AM


Visibility: N/A

Pressure: 30.09 "Hg

Humidity: 82%

Dew Point: 52 °F

Location of StaffordLocation

Past Weather in Stafford — Graph

°F

Stafford Temperature Yesterday

Maximum temperature yesterday: 70 °F (at 3:50 PM)
Minimum temperature yesterday: 52 °F (at 4:50 AM)
Average temperature yesterday: 61 °F

High & Low Weather Summary for the Past Weeks

 TemperatureHumidityPressure
High81 °F (Aug 23, 3:50 PM)100% (Aug 15, 1:50 AM)30.30 "Hg (Aug 15, 1:50 AM)
Low45 °F (Aug 15, 4:50 AM)41% (Aug 15, 3:50 PM)29.47 "Hg (Aug 20, 4:50 AM)
Average63 °F78%30.01 "Hg
* Reported Aug 12 9:50 AM — Aug 27 9:50 AM, Stafford, Weather by CustomWeather, © 2016

Note: Actual official high and low records may vary slightly from our data, if they occured in-between our weather recording intervals... More about our weather records

Advertising

Stafford Weather History for the Previous 24 Hours

Scroll right to see more
 ConditionsComfort  
Time TempWeatherWind HumidityBarometerVisibility
9:50 AM
Sat, Aug 27
57 °FPartly sunny.2 mph82%30.09 "HgN/A
8:50 AM54 °FPassing clouds.1 mph94%30.09 "HgN/A
7:50 AM50 °FCool.No wind94%30.09 "HgN/A
6:50 AM46 °FPassing clouds.1 mph100%30.09 "HgN/A
5:50 AM45 °FFog.No wind100%30.09 "Hg0 mi
4:50 AM46 °FFog.No wind100%30.09 "Hg0 mi
3:50 AM46 °FPassing clouds.2 mph93%30.09 "HgN/A
2:50 AM48 °FCool.1 mph100%30.12 "HgN/A
1:50 AM48 °FFog.1 mph100%30.12 "Hg1 mi
12:50 AM50 °FCool.1 mph94%30.12 "HgN/A
11:50 PM
Fri, Aug 26
54 °FCool.3 mph94%30.12 "HgN/A
10:50 PM57 °FCool.5 mph82%30.12 "HgN/A
9:50 PM55 °FCool.5 mph82%30.12 "HgN/A
8:50 PM59 °FCool.3 mph72%30.12 "HgN/A
7:50 PM61 °FCool.6 mph72%30.09 "HgN/A
6:50 PM64 °FMild.5 mph64%30.09 "HgN/A
5:50 PM66 °FMild.10 mph52%30.07 "HgN/A
4:50 PM70 °FScattered clouds.12 mph50%30.07 "HgN/A
3:50 PM70 °FScattered clouds.13 mph50%30.07 "HgN/A
2:50 PM68 °FScattered clouds.15 mph49%30.07 "HgN/A
1:50 PM68 °FScattered clouds.16 mph53%30.07 "HgN/A
12:50 PM66 °FScattered clouds.15 mph56%30.07 "HgN/A
11:50 AM66 °FPassing clouds.13 mph56%30.07 "HgN/A
Weather by CustomWeather, © 2016

See weather overviewHow to use our weather pages